Tracking 30995 objects as of 5-Jul-2025
HD Live streaming from Space Station
objects crossing your sky now

STARLINK-5697

Track STARLINK-5697 now!
10-day predictions
STARLINK-5697 is classified as:


NORAD ID: 55589
Int'l Code: 2023-020W
Perigee: 565.4 km
Apogee: 567.1 km
Inclination: 43.0 °
Period: 95.8 minutes
Semi major axis: 6937 km
RCS: Unknown
Launch date: February 12, 2023
Source: United States (US)
Launch site: AIR FORCE EASTERN TEST RANGE (AFETR)
Your satellite tracking list
SITRO-AIS-34
Track 1 satellite(s)




NASA's NSSDC Master Catalog

Two Line Element Set (TLE):
1 55589U 23020W   25186.54431364  .00000178  00000-0  28271-4 0  9991
2 55589  43.0039 267.4354 0001276 271.0308  89.0388 15.02529330131743
Source of the keplerian elements: AFSPC